Tracking 22879 objects as of 23-Apr-2021
HD Live streaming from Space Station
objects crossing your sky now

WESTFORD NEEDLES


WESTFORD NEEDLES is no longer on orbit
WESTFORD NEEDLES is classified as:


NORAD ID: 20023
Int'l Code: 1963-014EZ
Perigee: N/A
Apogee: N/A
Inclination: N/A
Period: N/A
Semi major axis: N/A
RCS: N/A
Launch date: May 9, 1963
Source: United States (US)
Launch site: AIR FORCE WESTERN TEST RANGE (AFWTR)
Decay date: 2020-11-08
aabbcc
Your satellite tracking list
Your tracking list is empty




NASA's NSSDC Master Catalog

Two Line Element Set (TLE):
1 20023U 63014EZ  20309.51346894  .13745025  31341-6  63869-1 0  9993
2 20023  83.3492 131.0638 0813677 359.9513   0.2017 14.26915188831992
Source of the keplerian elements: AFSPC